User: anonymous   Login
Location: Newark
(7.0858°N, 171.3717°E)
Time: 16:56:55
(UTC+00:00)
Language:

Transit 2A - Orbit

View from above orbital plane
View from above orbital plane
View from above satellite
View from above satellite

Ground track
Ground track

The orbit data is extracted from the following two-line orbital elements,

1 00045U 60007A   21127.68929817 -.00000081  00000-0  62911-5 0  9999
2 00045  66.6948 246.4346 0247860  79.2625 283.6273 14.33718740112314
Epoch (UTC): 07 May 2021 16:32:35
Eccentricity: 0.0247860
inclination: 66.6948°
perigee height: 602 km
apogee height: 957 km
right ascension of ascending node: 246.4346°
argument of perigee: 79.2625°
revolutions per day: 14.33718740
mean anomaly at epoch: 283.6273°
orbit number at epoch: 11231

The dashed part of the orbit path shows where the satellite is in the earth's shadow,  

DLR